Погода в Тракте

Россия / Республика Коми     62°41′56″N   51°17′25″E
темп.,
°C
ветер,
м/с
пор.,
м/с
влажн.,
%
обл.,
%
осадки,
мм/ч
давл.,
гПа
погр.,
м
28 января, чт
чт2800:00−2ююз41292100 0.3 1005647
03:00−1ююз51294100 0.8 1003841
06:00−3юз4109398 0.7 1003535
09:00−4зюз4109496 0.8 1004693
12:00−3зюз489199 0.2 1007728
15:00−4зюз3894100 0.3 1010489
18:00−4зюз2696100 0.1 1013344
21:00−5з1197100 0.2 101521
29 января, пт
пт2900:00−5вюв0097100 0.1 101726
03:00−10всв3696100 0.3 1018186
06:00−13всв4795100 0.1 1018244
09:00−14всв4795100 0.1 1018240
12:00−13всв4995100 0.1 1017271
15:00−11в41093100 0.3 1016352
18:00−10в41093100 0.1 1014503
21:00−6вюв41092100 0.3 1012647
30 января, сб
сб3000:00−7юв41192100 0.1 1011576
03:00−7юв41194100 0.5 1010670
06:00−10вюв51193100 0.5 1008405
09:00−9вюв51293100 0.8 1006600
12:00−9юв51192100 0.4 1005628
15:00−9юв51192100 0.8 1004633
18:00−9юв51293100 0.4 1003548
21:00−10юв41093100 0.6 1004390
31 января, вс
вс3100:00−11юв4994100 0.2 1004332
03:00−11юв4994100 0.3 1004281
06:00−12юв389596 0.1 1004230
09:00−11юв379596 0.1 1004245
12:00−8юв369496 0.1 1005268
15:00−7юв389598 0.1 1005342
18:00−6юв41093100 0.1 1004561
21:00−6вюв51193100 0.1 1001533
1 февраля, пн
пн100:00−5юв51294100 1.1 998694
03:00−3вюв51295100 2.0 995727
06:00−2юв51295100 1.1 993894
09:00−3юв41094100 1.8 992652
12:00−3ююв3794100 0.2 992525
15:00−4ю2697100 0.3 994218
18:00−4юз3997100 0.6 996496
21:00−7зюз51193100 1.3 1000740